{"data":{"norad_id":65400,"epoch":"2026-09-20T20:46:03.624672Z","epoch_age_seconds":83296,"freshness":"FRESH","line1":"1 65400U 25191X   26263.86531973  .00013262  00000+0  41308-3 0  9996","line2":"2 65400  97.2847 129.8800 0002095  90.4899 269.6584 15.33390215 59698","mean_motion":15.33390215,"eccentricity":0.0002095,"inclination_deg":97.2847,"raan_deg":129.88,"arg_perigee_deg":90.4899,"mean_anomaly_deg":269.6584,"bstar":0.00041308,"rev_number":5969,"period_min":93.909559739821,"perigee_km":464.27239580028,"apogee_km":467.1399660931,"semimajor_km":6843.8431809467,"source":"CELESTRAK","updated_at":"2026-09-21T09:00:35.601630Z"}}